カタログに戻る

STARLINK-11720

運用中通信VLEO
NORAD 64131·PAYLOAD·🇺🇸 United States

打ち上げ May 24, 2025 から Cape Canaveral Space Force Station

Loading…

次のパス (今後24時間)

TLE

最新Source: CelesTrak SupGP

元期: Sep 14, 2026, 21:14 UTC

1 64131C 25111J   26257.88520833  .00003293  00000+0  25584-4 0  2575
2 64131  43.0005 273.2320 0001593 255.5434 224.0516 15.70830826    15

AllMySatでSTARLINK-11720をリアルタイム追跡

Download on the App Store